Tracking 19484 objects as of 18-Jan-2019
HD Live streaming from Space Station
objects crossing your sky now

GLOBALSTAR M062

Track GLOBALSTAR M062 now!
10-day predictions
GLOBALSTAR M062 is classified as:


NORAD ID: 26082
Int'l Code: 2000-008B
Perigee: 1,493.6 km
Apogee: 1,505.5 km
Inclination: 52.0 °
Period: 115.8 minutes
Semi major axis: 7870 km
RCS: 2.6606 m2 (large)
Launch date: February 8, 2000
Source: Globalstar (GLOB)
Launch site: AIR FORCE EASTERN TEST RANGE (AFETR)
aabbcc
Your satellite tracking list
Your tracking list is empty




NASA's NSSDC Master Catalog

Two Line Element Set (TLE):
1 26082U 00008B   19017.83584101 -.00000086 +00000-0 +85385-4 0  9992
2 26082 051.9838 143.0519 0007552 142.7944 356.1168 12.43357327205562
Source of the keplerian elements: AFSPC